TimeEDT,TemperatureF,Dew PointF,Humidity,Sea Level PressureIn,VisibilityMPH,Wind Direction,Wind SpeedMPH,Gust SpeedMPH,PrecipitationIn,Events,Conditions,WindDirDegrees,DateUTC
12:15 AM,55.4,55.4,100,30.08,7.0,Calm,Calm,-,N/A,,Clear,0,2013-10-01 04:15:00
12:35 AM,54.5,54.5,100,30.08,7.0,Calm,Calm,-,N/A,,Clear,0,2013-10-01 04:35:00
12:55 AM,54.1,54.1,100,30.08,5.0,Calm,Calm,-,N/A,,Scattered Clouds,0,2013-10-01 04:55:00
1:15 AM,54.5,54.5,100,30.08,5.0,Calm,Calm,-,N/A,,Scattered Clouds,0,2013-10-01 05:15:00
1:35 AM,53.4,53.4,100,30.08,7.0,Calm,Calm,-,N/A,,Clear,0,2013-10-01 05:35:00
1:55 AM,54.3,54.3,100,30.09,5.0,Calm,Calm,-,N/A,,Clear,0,2013-10-01 05:55:00
2:15 AM,53.8,53.8,100,30.08,4.0,Calm,Calm,-,N/A,,Clear,0,2013-10-01 06:15:00
2:35 AM,53.1,53.1,100,30.08,3.0,Calm,Calm,-,N/A,,Clear,0,2013-10-01 06:35:00
2:55 AM,52.7,52.7,100,30.08,4.0,Calm,Calm,-,N/A,,Clear,0,2013-10-01 06:55:00
3:15 AM,52.5,52.5,100,30.08,4.0,Calm,Calm,-,N/A,,Clear,0,2013-10-01 07:15:00
3:35 AM,52.2,52.2,100,30.09,3.0,Calm,Calm,-,N/A,,Clear,0,2013-10-01 07:35:00
3:55 AM,52.5,52.5,100,30.09,5.0,Calm,Calm,-,N/A,,Clear,0,2013-10-01 07:55:00
4:15 AM,52.3,52.3,100,30.09,4.0,Calm,Calm,-,N/A,,Clear,0,2013-10-01 08:15:00
4:35 AM,52.0,52.0,100,30.09,3.0,Calm,Calm,-,N/A,,Clear,0,2013-10-01 08:35:00
4:55 AM,51.3,51.3,100,30.09,7.0,Calm,Calm,-,N/A,,Clear,0,2013-10-01 08:55:00
5:15 AM,51.1,51.1,100,30.09,5.0,Calm,Calm,-,N/A,,Clear,0,2013-10-01 09:15:00
5:35 AM,51.3,51.3,100,30.10,5.0,Calm,Calm,-,N/A,,Clear,0,2013-10-01 09:35:00
5:55 AM,50.9,50.9,100,30.10,5.0,Calm,Calm,-,N/A,,Clear,0,2013-10-01 09:55:00
6:15 AM,50.5,50.5,100,30.11,4.0,Calm,Calm,-,N/A,,Clear,0,2013-10-01 10:15:00
6:35 AM,50.7,50.7,100,30.11,4.0,Calm,Calm,-,N/A,,Clear,0,2013-10-01 10:35:00
6:55 AM,50.9,50.9,100,30.11,3.0,Calm,Calm,-,N/A,,Clear,0,2013-10-01 10:55:00
7:15 AM,50.5,50.5,100,30.12,3.0,Calm,Calm,-,N/A,,Clear,0,2013-10-01 11:15:00
7:35 AM,50.5,50.5,100,30.12,3.0,Calm,Calm,-,N/A,,Clear,0,2013-10-01 11:35:00
7:55 AM,50.4,50.4,100,30.13,4.0,Calm,Calm,-,N/A,,Clear,0,2013-10-01 11:55:00
8:15 AM,52.5,52.5,100,30.13,7.0,Calm,Calm,-,N/A,,Clear,0,2013-10-01 12:15:00
8:35 AM,55.2,55.2,100,30.14,10.0,Calm,Calm,-,N/A,,Clear,0,2013-10-01 12:35:00
8:55 AM,58.1,58.1,100,30.14,10.0,Calm,Calm,-,N/A,,Clear,0,2013-10-01 12:55:00
9:15 AM,60.4,60.3,99,30.14,10.0,Calm,Calm,-,N/A,,Clear,0,2013-10-01 13:15:00
9:35 AM,62.8,59.7,90,30.14,10.0,Calm,Calm,-,N/A,,Clear,0,2013-10-01 13:35:00
9:55 AM,65.5,60.8,85,30.14,10.0,Calm,Calm,-,N/A,,Clear,0,2013-10-01 13:55:00
10:15 AM,67.5,60.4,78,30.15,10.0,Calm,Calm,-,N/A,,Clear,0,2013-10-01 14:15:00
10:35 AM,69.4,60.8,74,30.14,10.0,Calm,Calm,-,N/A,,Clear,0,2013-10-01 14:35:00
10:55 AM,70.7,60.3,69,30.14,10.0,West,3.5,-,N/A,,Clear,270,2013-10-01 14:55:00
11:15 AM,72.1,59.9,65,30.14,10.0,West,4.6,-,N/A,,Clear,270,2013-10-01 15:15:00
11:35 AM,73.4,60.1,63,30.13,10.0,West,3.5,-,N/A,,Clear,270,2013-10-01 15:35:00
11:55 AM,74.1,59.5,60,30.13,10.0,Calm,Calm,-,N/A,,Clear,0,2013-10-01 15:55:00
12:15 PM,75.7,60.3,59,30.13,10.0,Calm,Calm,-,N/A,,Clear,0,2013-10-01 16:15:00
12:35 PM,76.3,60.1,57,30.13,10.0,Calm,Calm,-,N/A,,Clear,0,2013-10-01 16:35:00
12:55 PM,77.0,60.4,56,30.12,10.0,Calm,Calm,-,N/A,,Scattered Clouds,0,2013-10-01 16:55:00
1:15 PM,77.0,59.5,55,30.11,10.0,WNW,4.6,-,N/A,,Scattered Clouds,300,2013-10-01 17:15:00
1:35 PM,77.5,56.7,48,30.11,10.0,Calm,Calm,-,N/A,,Scattered Clouds,0,2013-10-01 17:35:00
1:55 PM,76.5,57.9,53,30.10,10.0,Calm,Calm,-,N/A,,Clear,0,2013-10-01 17:55:00
2:15 PM,78.3,57.2,48,30.09,10.0,Calm,Calm,-,N/A,,Clear,0,2013-10-01 18:15:00
2:35 PM,77.4,56.8,49,30.08,10.0,Calm,Calm,-,N/A,,Clear,0,2013-10-01 18:35:00
2:55 PM,78.3,57.4,49,30.08,10.0,NW,3.5,-,N/A,,Clear,310,2013-10-01 18:55:00
3:15 PM,79.5,57.7,47,30.07,10.0,Calm,Calm,-,N/A,,Scattered Clouds,0,2013-10-01 19:15:00
3:35 PM,79.2,56.5,46,30.06,10.0,NNE,4.6,-,N/A,,Clear,30,2013-10-01 19:35:00
3:55 PM,79.3,56.5,45,30.06,10.0,Calm,Calm,-,N/A,,Clear,0,2013-10-01 19:55:00
4:15 PM,79.5,57.9,47,30.05,10.0,NW,3.5,-,N/A,,Clear,310,2013-10-01 20:15:00
4:35 PM,78.8,57.0,47,30.05,10.0,Calm,Calm,-,N/A,,Clear,0,2013-10-01 20:35:00
4:55 PM,78.1,55.9,46,30.05,10.0,Calm,Calm,-,N/A,,Clear,0,2013-10-01 20:55:00
5:15 PM,77.7,57.6,50,30.06,10.0,Calm,Calm,-,N/A,,Clear,0,2013-10-01 21:15:00
5:35 PM,77.0,57.2,50,30.06,10.0,West,3.5,-,N/A,,Clear,270,2013-10-01 21:35:00
5:55 PM,74.8,60.3,60,30.06,10.0,Calm,Calm,-,N/A,,Clear,0,2013-10-01 21:55:00
6:15 PM,71.8,60.8,68,30.06,10.0,Calm,Calm,-,N/A,,Clear,0,2013-10-01 22:15:00
6:35 PM,69.8,60.1,71,30.06,10.0,Calm,Calm,-,N/A,,Clear,0,2013-10-01 22:35:00
6:55 PM,68.9,59.9,73,30.07,10.0,Calm,Calm,-,N/A,,Clear,0,2013-10-01 22:55:00
7:15 PM,66.9,60.3,79,30.08,10.0,Calm,Calm,-,N/A,,Clear,0,2013-10-01 23:15:00
7:35 PM,66.0,59.9,81,30.08,10.0,Calm,Calm,-,N/A,,Clear,0,2013-10-01 23:35:00
7:55 PM,65.1,60.1,84,30.08,10.0,Calm,Calm,-,N/A,,Clear,0,2013-10-01 23:55:00
8:15 PM,63.7,60.3,89,30.08,10.0,Calm,Calm,-,N/A,,Clear,0,2013-10-02 00:15:00
8:35 PM,63.3,62.4,97,30.09,10.0,Calm,Calm,-,N/A,,Clear,0,2013-10-02 00:35:00
8:55 PM,62.6,62.6,100,30.09,10.0,Calm,Calm,-,N/A,,Clear,0,2013-10-02 00:55:00
9:15 PM,62.1,62.1,100,30.10,10.0,Calm,Calm,-,N/A,,Clear,0,2013-10-02 01:15:00
9:35 PM,61.2,61.2,100,30.10,10.0,Calm,Calm,-,N/A,,Clear,0,2013-10-02 01:35:00
9:55 PM,61.2,61.2,100,30.10,10.0,Calm,Calm,-,N/A,,Clear,0,2013-10-02 01:55:00
10:15 PM,60.6,60.6,100,30.11,7.0,Calm,Calm,-,N/A,,Clear,0,2013-10-02 02:15:00
10:35 PM,60.3,60.3,100,30.11,7.0,Calm,Calm,-,N/A,,Clear,0,2013-10-02 02:35:00
10:55 PM,59.9,59.9,100,30.11,5.0,Calm,Calm,-,N/A,,Clear,0,2013-10-02 02:55:00
11:15 PM,59.5,59.5,100,30.11,5.0,Calm,Calm,-,N/A,,Clear,0,2013-10-02 03:15:00
11:35 PM,59.4,59.4,100,30.11,5.0,Calm,Calm,-,N/A,,Scattered Clouds,0,2013-10-02 03:35:00
11:55 PM,59.4,59.4,100,30.11,5.0,Calm,Calm,-,N/A,,Scattered Clouds,0,2013-10-02 03:55:00